167 visiteurs
Prévisions de votre ville :
Vigilance : 6 départements Mise à jour le 15/09/2019 à 16:06 - Voir la carte

Paris Roissy CDG (95380) le 16/09/2019 à 00:30 Choisir station

17°C 68 % N Vit. moyenne 13 kmh/h

Relevés météo quotidiens pour la station de :

UTC
S: Synop
M: Metar
Loc T°C
(°C)
Td
(°C)
HR
(%)
Vis
(km)
Néb
(octa)
Vent
(km/h)
Pression
(mb)
Précipitations
(mm)
Temps
              MOY
10 min
DIR RAF 1h MESURE VAR SUR 3h    
S 00 h 02h 20.6 16.0 75 35 - 11 15 1014.5 +1.0/3h 0.0/6h - 0.0/3h -
S 01 h 03h 19.5 16.3 82 19 - 13 28 1014.2 +0.5/3h 0.0/1h -
S 02 h 04h 18.8 16.2 85 19 - 9 22 1014.0 -0.3/3h 0.0/1h -
S 03 h 05h 17.8 16.1 90 12 - 7 15 1014.0 -0.5/3h 0.0/3h -
S 04 h 06h 18.0 16.7 92 13 8/8 4 7 1014.3 +0.1/3h 0.0/1h
S 05 h 07h 18.7 17.2 91 14 8/8 4 6 1014.6 +0.6/3h 0.0/1h
S 06 h 08h 19.5 17.3 87 17 8/8 11 19 1015.4 +1.4/3h 0.0/12h - 0.0/3h - 0.0/24h
S 07 h 09h 20.3 16.7 80 19 8/8 13 19 1015.9 +1.6/3h 0.0/1h
S 08 h 10h 20.9 16.5 76 19 8/8 7 11 1016.0 +1.4/3h 0.0/1h
S 09 h 11h 21.8 16.5 72 19 8/8 13 24 1016.0 +0.6/3h 0.0/3h
S 10 h 12h 23.6 17.3 68 19 7/8 13 28 1016.3 +0.5/3h 0.0/1h
S 11 h 13h 24.8 17.0 62 18 - 11 26 1015.9 0.0/3h 0.0/1h -
S 12 h 14h 26.6 17.9 59 25 - 11 22 1015.3 -0.5/3h 0.0/6h - 0.0/3h -
S 13 h 15h 27.9 18.6 57 25 - 6 11 1015.0 -1.2/3h 0.0/1h -
S 14 h 16h 29.1 17.6 50 19 - 13 26 1014.5 -1.3/3h 0.0/1h -
S 15 h 17h 29.6 17.1 47 19 - 11 41 1014.0 -1.3/3h 0.0/3h -
M 16 h 18h 30 17 46 >=10 - 13 - 1013 -/3h -
S 17 h 19h 29.8 16.2 44 45 - 7 13 1013.1 -1.4/3h 0.0/1h -
S 18 h 20h 29.3 16.1 45 35 - 6 13 1012.9 -1.1/3h 0.0/12h - 0.0/3h -
S 19 h 21h 27.6 16.6 51 19 - 6 11 1013.2 -0.1/3h 0.0/1h -
S 20 h 22h 24.4 17.1 64 0.8 - 7 19 1013.8 +0.6/3h 0.0/1h -
S 21 h 23h 23.0 17.2 70 27 - 7 11 1014.5 +1.5/3h 0.0/3h -
S 22 h 00h 21.2 16.8 76 26 - 6 11 1015.0 +1.6/3h 0.0/1h -
S 23 h 01h 19.9 16.1 79 19 - 11 19 1014.9 +1.0/3h 0.0/1h -
evolution des temperatures
cumul des precipitations
vent moyen et rafales
pression atmospherique

Un tiret (-) signifie que les données ne sont pas disponibles.

Passez la souris sur les pictos temps pour avoir plus de précisions. Passez les flèches sur l'icône de la direction du vent pour voir la direction précise en degrés.

Les données de l'heure en cours sont disponibles à partir de H+15 minutes.


S signifie station Synop, plus complète qu'une station Metar (M). Il y a +1h de différence entre l'heure UTC et l'heure légale en hiver et +2h en été.

Td est la mesure du point de rosée.

HR est l'humidité relative/p>

Vis est la visibilité

Néb est la nébulosité du ciel (couverture nuageuse) exprimée en octas (de 0/8 à 8/8).

Vent moy 10 min donne le vent moyen sur les 10 minutes qui précèdent le relevé.

Vent raf 1h donne la rafale maximale mesurée dans l'heure qui précède le relevé.


Les données les plus anciennes remontent à avril 2014.

Les données présentées sur cette page proviennent des stations météo officielles. Les relevés sont effectués aux normes en vigueur (anémomètre à 10m de haut, thermomètre sous abri normalisé à 2m du sol...)

Météo 60 décline toute responsabilité en cas d'absence de données, d'erreurs, de mauvaise utilisation ou interprétation et n'est pas habilité à fournir des certificats intempéries.